Location: Newark
(48.4660°N, 135.0670°E)
Time: 14:36:15
(UTC+00:00)

N. Korean satellite - Visible Passes

Search period start: 18 September 2020 00:00
Search period end: 28 September 2020 00:00
Orbit: 455 x 503 km, 97.2° (Epoch: 17 September)

Date Brightness Start Highest point End Pass type
(mag) Time Alt. Az. Time Alt. Az. Time Alt. Az.
18 Sep 10.2 19:25:54 10° ENE 19:27:14 12° E 19:28:33 10° ESE visible
20 Sep 8.8 20:05:35 10° NNE 20:08:55 31° E 20:12:12 10° SSE visible
21 Sep 9.8 19:40:16 10° NE 19:42:44 17° E 19:45:09 10° SE visible
24 Sep 9.3 19:55:07 10° NE 19:58:09 24° E 20:01:08 10° SSE visible
25 Sep 10.0 19:30:11 10° ENE 19:31:54 13° E 19:33:37 10° ESE visible
27 Sep 8.5 20:10:08 10° NNE 20:13:32 35° E 20:16:50 10° SSE visible
